Location: Bad D�rkheim
(49.4618°N, 8.1724°E)
Time: 18:35:56
(UTC+00:00)

Daily predictions for brighter satellites

Satellite Brightness Start Highest point End
(mag) Time Altitude Azimuth Time Altitude Azimuth Time Altitude Azimuth
Cosmos 2074 Rocket 4.1 17:36:41 10° S 17:42:50 62° E 17:48:59 10° NNE
Cosmos 2154 Rocket 4.4 17:37:25 10° SSE 17:43:10 42° E 17:48:55 10° NNE
YAOGAN 1 2.7 17:40:13 10° SSE 17:44:26 54° ENE 17:48:41 10° N
Helios 1A Rocket 3.6 17:41:03 10° SE 17:44:41 33° ENE 17:48:19 10° N
FALCON 9 DEB 3.7 17:41:57 10° W 17:45:02 45° N 17:48:07 10° ENE
APEX 3.3 17:42:59 10° NW 17:45:47 52° WSW 17:48:25 10° SSE
COSMO-SKYMED 1 2.6 17:44:55 10° NNE 17:49:18 89° E 17:53:39 10° SSW
GP-B 4.2 17:48:19 10° SE 17:51:53 24° ENE 17:55:28 10° NNE
Cosmos 2263 Rocket 3.3 17:48:58 10° NW 17:54:20 50° WSW 17:59:40 10° S
Cosmos 1437 4.2 17:51:46 10° NNW 17:54:29 37° W 17:57:11 10° SSW
Meteor 1-18 Rocket 4.4 17:49:11 10° N 17:55:05 61° ENE 18:00:55 10° SSE
Cosmos 968 Rocket 3.6 17:49:59 10° NNW 17:55:18 89° WSW 18:00:35 10° SSE
Cosmos 1992 Rocket 4.4 17:50:28 10° S 17:55:18 40° ESE 18:00:10 10° NE
SL-16 R/B 2.3 17:50:14 10° S 17:55:47 61° ESE 18:01:24 10° NE
FALCON 9 DEB 3.7 17:54:30 10° WNW 17:57:33 42° N 18:00:32 10° ENE
ARGOS 3.2 17:52:16 10° SSE 17:57:34 59° ENE 18:02:55 10° N
USA 234 4.3 17:53:46 10° ENE 17:59:02 25° SE 18:04:16 10° S
Cosmos 1486 Rocket 4.0 17:53:44 10° NNW 17:59:03 87° ENE 18:04:23 10° SSE
Cosmos 1515 3.6 17:55:39 10° N 17:59:29 64° E 18:03:15 10° SSE
Okean 1 3.3 17:55:32 10° N 17:59:33 63° ENE 18:03:33 10° SSE
SJ 16-02 3.4 17:59:41 10° NNE 18:00:51 11° NE 18:02:01 10° ENE
SeaSat 1 3.2 17:57:44 10° NE 18:02:10 32° ESE 18:06:33 10° S
Okean 1-7 4.0 17:59:10 10° N 18:02:57 28° ENE 18:06:41 10° SE
Cosmos 1707 Rocket 4.2 17:58:42 10° NNW 18:03:03 60° W 18:07:20 10° S
Cosmos 1633 Rocket 3.0 17:58:51 10° S 18:03:15 75° E 18:07:42 10° NNE
Cosmos 2184 Rocket 4.0 17:57:15 10° S 18:03:25 82° E 18:09:39 10° N
OBJECT-B 2.8 18:03:20 12° ENE 18:04:00 12° ENE 18:05:25 10° NE
CZ-2C R/B 3.1 18:02:12 10° NNE 18:07:22 39° E 18:12:22 10° SSE
CZ-4 R/B 1.5 18:05:01 10° S 18:08:51 74° WSW 18:12:48 10° NNW
H-2A R/B 2.3 18:03:28 10° SSE 18:08:56 85° WSW 18:14:25 10° NNW
SAR-Lupe-4 3.8 18:06:35 10° NNE 18:10:02 44° E 18:13:29 10° S
USA 305 3.6 18:06:54 10° W 18:11:04 48° N 18:14:50 12° ENE
Gbstr 26 Del rocket 3.4 18:09:24 10° W 18:13:46 73° N 18:18:27 14° ENE
Cosmos 2237 4.5 18:09:41 10° S 18:15:08 47° ESE 18:20:37 10° NE
Meteor 1-20 Rocket 4.3 18:10:10 10° SSW 18:15:38 82° WNW 18:21:11 10° N
Cosmos 1302 Rocket 4.5 18:10:58 10° SW 18:16:08 65° WNW 18:21:21 10° NNE
SL-4 R/B 1.7 18:12:42 10° WNW 18:16:15 64° N 18:18:38 18° E
USA 307 3.6 18:18:14 10° W 18:22:23 47° N 18:25:41 15° ENE
FALCON 9 DEB 3.1 18:20:30 10° WNW 18:23:57 81° SSW 18:26:13 20° ESE
ATLAS CENTAUR R/B 1.6 18:21:22 10° S 18:24:41 35° ESE 18:26:57 17° ENE
USA 186 2.4 18:25:07 22° ENE 18:25:07 22° ENE 18:26:52 10° NNE
Cosmos 1354 Rocket 3.9 18:20:29 10° NNW 18:25:46 76° ENE 18:31:00 10° SSE
USA 306 3.6 18:21:40 10° W 18:25:48 46° N 18:28:56 16° ENE
Cosmos 44 Rocket 4.2 18:22:07 10° NW 18:27:14 54° WSW 18:32:17 10° SSE
ERS-2 2.0 18:23:41 10° NNE 18:27:21 77° ESE 18:31:00 10° SSW
FALCON 9 DEB 3.7 18:25:06 10° WNW 18:28:08 41° N 18:29:48 22° ENE
Okean-O 3.3 18:24:21 10° S 18:28:43 60° WSW 18:33:08 10° NNW
SAR-Lupe-1 3.9 18:25:54 10° NNE 18:29:31 78° ESE 18:33:06 10° S
Cosmos 1844 Rocket 2.6 18:23:55 10° NNW 18:29:31 77° ENE 18:35:05 10° SSE
Cosmos 2084 Rocket 4.0 18:25:30 10° NW 18:29:47 59° SW 18:34:11 10° SSE
CSL-04 Rocket 3.7 18:24:30 10° SSE 18:30:03 85° ENE 18:35:36 10° NNW
FALCON 9 DEB 3.8 18:27:01 10° WNW 18:30:05 41° N 18:31:45 22° ENE
CSL-04 Debris 4.2 18:25:58 10° SSE 18:31:24 88° WSW 18:36:55 10° NNW
USA 308 3.6 18:28:52 10° W 18:33:01 46° N 18:35:51 18° ENE
Cosmos 1777 Rocket 4.3 18:29:20 10° NNW 18:34:24 45° ENE 18:37:59 18° SE
Cosmos 1666 3.2 18:31:07 10° SSE 18:34:28 33° E 18:37:51 10° NNE
Cosmos 1503 Rocket 4.1 18:30:46 10° NNW 18:36:00 80° WSW 18:41:09 10° SSE
HJ-1C 4.0 18:33:22 10° S 18:36:38 58° WSW 18:39:56 10° NNW
PSLV R/B 4.3 18:34:21 10° N 18:38:27 67° WNW 18:42:28 10° SSW
Cosmos 2341 Rocket 4.0 18:32:20 10° S 18:38:29 57° E 18:44:36 10° NNE
Meteor 1-5 Rocket 4.2 18:33:36 10° S 18:38:47 52° E 18:44:08 10° NNE
Cosmos 1844 3.7 18:35:31 10° NNW 18:41:21 79° ENE 18:46:58 10° SSE
Okean 3 4.1 18:37:42 10° N 18:41:35 33° ENE 18:42:57 27° ESE
CZ-4B R/B 4.1 18:40:00 10° NNW 18:42:20 20° WNW 18:44:41 10° WSW
Cosmos 1470 Rocket 3.8 18:38:01 10° SSW 18:42:29 76° W 18:46:57 10° N
Cosmos 2360 Rocket 2.1 18:39:33 10° SSW 18:45:09 67° ESE 18:50:47 10° NNE
Ariane Rocket 3.3 18:42:04 18° SE 18:45:29 44° ENE 18:50:19 10° N
Cosmos 2278 Rocket 3.3 18:41:50 10° NNW 18:46:41 28° NE 18:48:36 23° ENE
Cosmos 1727 Rocket 4.4 18:43:56 10° N 18:49:41 39° ENE 18:52:57 23° ESE
Cosmos 1500 3.3 18:49:28 10° SSW 18:53:10 71° W 18:56:55 10° N
Meteor 2-4 Rocket 3.9 18:47:23 10° NNW 18:53:14 80° W 18:59:09 10° S
Cosmos 1703 Rocket 3.5 18:49:04 10° N 18:53:31 87° E 18:57:52 10° S
Cosmos 2333 Rocket 2.6 18:50:12 10° S 18:55:22 37° ESE 19:00:35 10° NE
Cosmos 1689 Rocket 3.7 18:53:10 10° N 18:55:50 35° WNW 18:58:30 10° SW
Cosmos 2218 Rocket 4.1 18:50:55 10° SSE 18:57:04 52° E 19:03:15 10° NNE
SL-08 RB Rocket 4.3 18:52:52 10° S 18:57:19 59° W 19:01:52 10° NNW
ERBS 3.7 18:57:56 10° W 19:00:58 32° NNW 19:02:19 23° NNE
Cosmos 1933 Rocket 3.8 18:59:04 10° SSW 19:03:24 69° W 19:07:48 10° N
Cosmos 1943 Rocket 4.2 19:02:50 10° N 19:05:18 13° NNE 19:06:52 12° NE
Cosmos 2242 Rocket 4.3 19:07:04 10° NNW 19:11:31 56° W 19:15:52 10° S
Resurs 01 Rocket 2.5 19:12:40 32° NE 19:12:40 32° NE 19:16:07 10° N
Cosmos 864 Rocket 4.4 19:07:45 10° S 19:13:49 63° E 19:19:58 10° NNE
Cosmos 2322 Rocket 3.1 19:09:52 10° SW 19:15:17 49° NW 19:20:46 10° NNE
Lacrosse 4 Rocket 3.2 19:13:03 10° S 19:14:29 19° S 19:14:29 19° S
Abrixas rocket 3.6 19:14:46 10° W 19:16:07 27° W 19:16:07 27° W
SME Rocket 4.2 19:09:05 10° NNE 19:17:37 69° ESE 19:23:04 10° S
Cosmos 1959 Rocket 4.3 19:13:11 10° S 19:19:14 72° E 19:25:20 10° NNE
FALCON 9 DEB 3.8 19:18:08 10° WNW 19:20:47 45° NNW 19:20:47 45° NNW
Cosmos 192 4.2 19:17:40 10° S 19:22:31 67° ESE 19:27:25 10° NNE
SJ-6B 3.1 19:22:29 28° S 19:24:33 68° WSW 19:28:36 10° NNW
COSMOS 2428 2.9 19:19:58 10° S 19:32:12 - NE 19:24:51 45° SE
ASTEX 1 3.2 19:21:53 10° N 19:26:48 78° E 19:30:11 20° S
GP-B 4.5 19:24:50 10° SSW 19:29:00 39° W 19:33:11 10° NNW
Meteor 1-23 Rocket 4.1 19:23:30 10° N 19:29:05 65° ENE 19:30:27 49° SE
MOS 1 4.2 19:25:33 22° SSE 19:29:22 86° WSW 19:35:06 10° NNW
Cosmos 2219 Rocket 2.1 19:26:48 10° SSW 19:32:17 61° ESE 19:37:51 10° NE
Meteor 1-11 Rocket 3.6 19:26:45 10° S 19:32:29 81° E 19:38:06 10° NNE
FALCON 9 DEB 4.4 19:30:34 10° WNW 19:32:42 36° NW 19:32:42 36° NW
OBJECT-B 1.9 19:36:24 44° WNW 19:36:24 44° WNW 19:39:01 10° NNW
Resurs 1-3 3.5 19:38:47 81° S 19:39:00 88° WSW 19:43:26 10° NNW
SeaSat 1 3.4 19:35:04 10° NNE 19:39:49 47° NW 19:44:32 10° SW
SL-16 R/B 4.0 19:35:20 10° WSW 19:40:17 30° NW 19:45:16 10° NNE
SJ 16-02 1.8 19:35:59 10° NNW 19:39:34 51° NNE 19:39:34 51° NNE
Terra 4.2 19:42:57 12° NNE 19:42:57 12° NNE 19:43:28 10° NNE
USA 234 3.1 19:39:54 37° ENE 19:42:46 76° SE 19:49:19 10° SW
Cosmos 1066 Rocket 4.3 19:37:14 10° NNW 19:42:57 80° W 19:45:41 33° S
CZ-2C R/B 4.2 19:42:36 10° N 19:47:37 37° WNW 19:52:31 10° SW
Meteor 2-20 Rocket 4.3 19:42:30 10° N 19:48:37 66° ENE 19:49:08 63° ESE
Cosmos 2369 Rocket 4.2 19:47:36 10° N 19:50:34 14° NNE 19:50:42 14° NNE
USA 305 3.6 19:47:20 10° WNW 19:50:56 47° NNW 19:50:56 47° NNW
BREEZE-M DEB (TANK) 2.8 19:48:40 10° W 19:51:09 69° WSW 19:51:09 69° WSW
Cosmos 2322 3.7 19:46:36 10° SSW 19:52:20 80° WNW 19:58:06 10° NNE
SL-4 R/B 3.6 19:52:23 10° WNW 19:54:13 27° W 19:54:13 27° W
Cosmos 1898 Rocket 4.3 19:53:59 10° NNW 19:57:51 40° NNE 19:57:51 40° NNE
Gbstr 26 Del rocket 3.5 19:56:11 10° WNW 20:00:59 76° N 20:00:59 76° N
USA 307 4.0 19:58:41 10° WNW 20:01:49 42° NW 20:01:49 42° NW
ATLAS CENTAUR R/B 3.0 20:00:21 10° WSW 20:03:11 29° NW 20:03:11 29° NW
USA 306 4.1 20:02:03 10° WNW 20:05:03 40° NW 20:05:03 40° NW
USA 308 4.3 20:09:16 10° WNW 20:11:59 36° NW 20:11:59 36° NW
NOSS 3-3 (A) 4.4 20:10:03 10° NW 20:17:30 89° SW 20:18:42 68° SE
NOSS 3-3 (C) 4.4 20:10:09 10° NW 20:17:36 90° SW 20:18:47 69° SE
SPOT 3 Rocket 3.9 20:18:38 63° W 20:18:38 63° W 20:23:35 10° NNW
Cosmos 2360 Rocket 4.1 20:24:49 10° WSW 20:29:38 28° NW 20:34:30 10° NNE
Cosmos 2278 Rocket 2.6 20:25:37 10° NNW 20:30:28 60° WNW 20:30:28 60° WNW
Cosmos 2333 Rocket 3.2 20:34:09 10° SW 20:39:35 44° NW 20:45:04 10° NNE
Cosmos 1821 Rocket 4.3 20:41:55 63° NW 20:41:55 63° NW 20:47:29 10° N
Resurs 01 Rocket 3.8 20:50:14 24° WNW 20:50:14 24° WNW 20:52:34 10° NNW
Cosmos 1943 Rocket 3.8 20:45:23 10° NNW 20:48:24 28° N 20:48:24 28° N
COSMOS 2428 4.5 21:04:33 10° WSW 21:14:01 15° NNE 21:15:04 10° NNE
Cosmos 2219 Rocket 3.9 21:11:48 10° WSW 21:16:39 29° NW 21:21:33 10° NNE
Terra 4.5 21:21:50 15° NNW 21:21:50 15° NNW 21:22:40 10° NNW
SJ 16-02 4.3 21:15:43 10° WNW 21:16:34 13° WNW 21:16:34 13° WNW
USA 234 4.1 21:27:15 45° WNW 21:27:15 45° WNW 21:32:00 10° W
USA 281 4.3 21:34:30 38° NNW 21:34:30 38° NNW 21:38:23 10° NNW
Cosmos 2369 Rocket 4.3 21:30:36 10° NNW 21:32:29 21° NNW 21:32:29 21° NNW
